severe weather risk

Severe Weather Risk Elevated

Severe Weather Risk Elevated

Severe Weather Risk Elevated

Heat Indices Over 100

Another brutal day of heat and humidity is underway. Temperatures are in the 90s. Heat indices are over 100. It is all setting up for severe weather and the Storm Prediction Center has raised the risk of severe weather over the area for late this afternoon and this evening.

Severe Weather Risk Elevated

storm free

Meanwhile with those temperatures in the 90s, dewpoints in the 70s and an approaching cold front the table is being set.

NEW YORK CITY METRO AREA

CITY           SKY/WX    TMP DP  RH WIND       PRES   REMARKS
Central Park   MOSUNNY   93  72  50 W8        29.98S HX 101
LaGuardia APRT MOSUNNY   95  71  45 W9        29.93F HX 102
Kennedy INTL   MOSUNNY   94  73  50 W16G22    29.95F HX 103
Newark/Liberty PTSUNNY   95  72  47 SW15      29.95S HX 103
Bronx Bot Gard   N/A     91  70  49 SW17      29.96S HX  97
Wall St Helipt MOSUNNY   93  72  49 W13G18    29.95F HX 100
Teterboro      MOSUNNY   93  71  48 W14G24    29.93F HX 100
$$

NYZ177-179-078>081-141800-
LONG ISLAND NEW YORK

CITY           SKY/WX    TMP DP  RH WIND       PRES   REMARKS
Farmingdale    PTSUNNY   94  73  50 SW13      29.93F HX 103
MacArthur/ISP  MOSUNNY   95  73  48 SW14      29.93F HX 104
Shirley        SUNNY     93  74  53 S12G18    29.94S HX 103
Riverhead      NOT AVBL
Westhampton    SUNNY     91  74  57 SW13G20   29.95F HX 100
Southampton      N/A     84  77  79 W7        29.90S HX  94
Bridgehampton  NOT AVBL
East Hampton   FAIR      89  77  67 SW8       29.93S HX 102
Montauk          N/A     91  74  57 SW7       29.94F HX 100
$$

NYZ052-065-067-141800-
HUDSON VALLEY

CITY           SKY/WX    TMP DP  RH WIND       PRES   REMARKS
White Plains   MOSUNNY   90  72  55 W12G18    29.96S HX  97
Newburgh       PTSUNNY   86  75  70 NW12      29.97S HX  95
Montgomery     PTSUNNY   90  75  61 W12G21    29.95S HX 100
Poughkeepsie   MOSUNNY   92  72  51 SW12      29.93S HX  99
Albany         PTSUNNY   88  72  58 SW12      29.92S HX  94
$$

NJZ001-105-106-008-010-013-015-019>022-104-141800-
NEW JERSEY

CITY           SKY/WX    TMP DP  RH WIND       PRES   REMARKS
Newark/Liberty PTSUNNY   95  72  47 SW15      29.95S HX 103
Teterboro      MOSUNNY   93  71  48 W14G24    29.93F HX 100
Caldwell       MOSUNNY   92  72  51 MISG      29.95F HX  99
Morristown     MOSUNNY   91  73  55 W9G17     29.96F HX 100
Somerville     SUNNY     92  74  55 CALM      29.95F HX 101
Linden         FAIR      93  71  48 W14       29.97F HX  99
Sussex         CLOUDY    86  75  69 W5        29.97S HX  95
Abdover          N/A     88  73  61 VRB3      29.99S HX  95
Trenton        SUNNY     93  73  52 W13G18    29.97F HX 102
Millville      SUNNY     95  75  52 NW12      30.00S HX 107
Atlantic City  NOT AVBL
Wrightstown    PTSUNNY   94  76  55 W10G24    29.95S HX 107
Toms River     PTSUNNY   96  75  50 W15       29.98F HX 108
Belmar         SUNNY     94  74  52 W9        29.98F HX 104
$$

PAZ047>061-062-071-141800-
EASTERN PENNSYLVANIA

CITY           SKY/WX    TMP DP  RH WIND       PRES   REMARKS
Philadelphia   MOSUNNY   94  70  45 W12       29.99S HX 100
Allentown      PTSUNNY   89  72  56 W13G21    29.99S HX  96
Scranton       MOSUNNY   86  73  65 SW10      30.00F HX  93
$$

CTZ002-004>006-009-010-012-RIZ004-006-007-MAZ004-011-015-141800-
SOUTHERN NEW ENGLAND
 IN CT

CITY           SKY/WX    TMP DP  RH WIND       PRES   REMARKS
Bradley INTL   MOSUNNY   92  71  50 W7G17     29.91F HX  98
Hartford       MOSUNNY   94  73  50 NW8       29.90S HX 103
Danbury        MOSUNNY   88  72  58 W12       29.96F HX  94
Wtrbury/Oxford MOSUNNY   88  72  58 NW12      29.99R HX  94
Bridgeport     SUNNY     90  75  61 SW16      29.92F HX 100
Meriden        SUNNY     94  72  48 VRB7      29.92S HX 102
New Haven      MOSUNNY   86  75  69 SW13G22   29.92F HX  95
Chester        FAIR      90  77  66 SW7       29.94S HX 102
Groton         SUNNY     88  77  69 SW13      29.91F HX 100
Wilimantic     MOSUNNY   91  75  59 W6        29.91F HX 101

 IN RI

CITY           SKY/WX    TMP DP  RH WIND       PRES   REMARKS
Providence     MOSUNNY   93  72  50 W12       29.89F HX 101
Block Island   SUNNY     87  77  72 SW13      29.94S HX  99
Westerly       SUNNY     90  72  55 SW10G21   29.92F HX  97
 IN MA

CITY           SKY/WX    TMP DP  RH WIND       PRES   REMARKS
Boston         MOSUNNY   92  72  51 W15       29.86F HX  99
Worchester     PTSUNNY   85  71  63 W13       29.95S HX  90
Westfield      MOSUNNY   92  70  48 W9        29.91S HX  97
Provincetown   SUNNY     88  75  65 SW14      29.89F HX  97
Nantucket      MOSUNNY   80  75  84 SW15      29.93F
$$

ANZ330-335-338-340-345-350-353-355-141800-
COASTAL MARINE OBSERVATIONS


STATION/POSITION TIME  SKY/WX   TEMP    WIND        PRES    VSBY  WAVE
                                AIR SEA DIR/SP/G                  HT/PER
                 (UTC)          (F)     (DEG/KT/KT) (MB)    (MI)  (FT/S)
NY HARB ENTRANCE 1550            81 78  200/  8/  8 1014.5          3/ 6
20S FIRE ISLAND  1550            79 78  230/ 10/ 12 1014.5          3/ 6
GREAT SOUTH BAY  1600            83 83  220/ 10/ 14   N/A
23 SSW MONTAUK P 1550            78 75  230/ 12/ 14 1014.5          4/ 6
15 E BARNEGAT LI 1600               75                N/A           3/ 6
HUDSON CANYON    1550            81 80              1015.7          5/ 6
KINGS POINT      1600            86 76              1014.1
EXECUTION ROCKS  1600            87     250/  4/  6   N/A
CENTRAL LI SOUND 1600            82 79  230/ 14/ 16   N/A           1/ 2
EASTERN LI SOUND 1600            80 73  250/  6/  6   N/A
ROBBINS REEF     1600            89     270/ 13/ 16 1013.7
$$

 

storm free

storm free
storm free

storm free 

Regional radar is beginning to get a bit busy. Look for local radars to start getting busy in the next few hours

FiOS1 News Weather Forecast For Long Island

FiOS1 News Weather Forecast For New Jersey

FiOS1 News Weather Forecast For Hudson Valley

NATIONAL WEATHER SERVICE SNOW FORECASTS

JOIN JOESTRADAMUS ON YOUTUBE!

LATEST JOESTRADAMUS ON THE LONG RANGE

LONG ISLAND WEATHER

NEW YORK WEATHER

 

Weather App

storm free

Don’t be without Meteorologist Joe Cioffi’s weather app. It is really a meteorologist app because you get my forecasts and my analysis and not some automated computer generated forecast based on the GFS model. This is why your app forecast changes every 6 hours. It is model driven with no human input at all. It gives you an icon, a temperature and no insight whatsoever.

It is a complete weather app to suit your forecast needs. All the weather information you need is right on your phone. Android or I-phone, use it to keep track of all the latest weather information and forecasts. This weather app is also free of advertising so you don’t have to worry about security issues with your device. An accurate forecast and no worries that your device is being compromised.

Use it in conjunction with my website and my facebook and twitter and you have complete weather coverage of all the latest weather and the long range outlook. The website has been redone and upgraded. Its easy to use and everything is archived so you can see how well Joe does or doesn’t do when it comes to forecasts and outlooks.

Just click on the google play button or the apple store button on the sidebar for my app which is on My Weather Concierge. Download the app for free. Subscribe to my forecasts on an ad free environment for just 99 cents a month.
Get my forecasts in the palm of your hand for less than the cost of a cup of Joe!

 

http://www.fragalalandscape.com/

MENTION JOE CIOFFI AND GET A 5% DISCOUNT

 

Liked it? Take a second to support joestradamus on Patreon!